Regional Weather Roundup
Issued by NWS

Home | Current Version | Previous Version | Graphics & Text | Print | Product List | Glossary Off
Versions: 1 2 3 4 5 6 7 8 9 10 11 12 13 14 15 16 17 18 19 20 21 22 23 24 25 26 27 28 29 30 31 32 33 34 35 36 37 38 39 40 41 42 43 44 45 46 47 48 49 50

000
ASUS43 KTOP 010659
RWRKS

WEATHER ROUNDUP FOR KANSAS
NATIONAL WEATHER SERVICE GOODLAND KS
200 AM CDT WED OCT 01 2014

NOTE:  "FAIR" INDICATES FEW OR NO CLOUDS BELOW 12,000 FEET WITH NO
SIGNIFICANT WEATHER AND/OR OBSTRUCTIONS TO VISIBILITY.

KSZ001>006-013>018-027>032-041>047-010800-
NORTHWEST KANSAS

CITY           SKY/WX    TMP DP  RH WIND       PRES   REMARKS
GOODLAND       MOCLDY    56  47  71 W10       29.79F
HAYS           MOCLDY    57  52  82 CALM      29.70S VSB 1
HILL CITY      CLOUDY    64  63  96 CALM      29.73S FOG
RUSSELL        CLEAR     63  60  90 SW9       29.68S
$$

KSZ061>065-074>080-084>089-010800-
SOUTHWEST KANSAS

CITY           SKY/WX    TMP DP  RH WIND       PRES   REMARKS
DODGE CITY     CLEAR     59  49  69 SW6       29.74F
GARDEN CITY    PTCLDY    57  47  69 E6        29.74S
GREAT BEND     PTCLDY    61  55  82 S9        29.71R
LIBERAL        PTCLDY    64  43  45 E6        29.75F
$$

KSZ066>073-081>083-090>101-010800-
SOUTHEAST KANSAS

CITY           SKY/WX    TMP DP  RH WIND       PRES   REMARKS
CHANUTE        CLOUDY    70  62  76 S10       29.78F
COFFEYVILLE    MOCLDY    70  62  76 S9        29.78S
HUTCHINSON     CLOUDY    72  63  73 S13       29.72F
MEDICINE LODGE   N/A     71  59  65 S3        29.71F
NEWTON         CLOUDY    70  61  73 S13G21    29.75S
PARSONS        MOCLDY    71  62  73 VRB7      29.79S
WICHITA INTL   CLOUDY    73  64  73 S17       29.72R
WICHITA JABRA  CLOUDY    72  64  76 S18G24    29.73R
WINFIELD       MOCLDY    71  64  78 S15G22    29.74S
$$

KSZ007>012-019>026-033>040-048>060-102>105-010800-
NORTHEAST KANSAS

CITY           SKY/WX    TMP DP  RH WIND       PRES   REMARKS
CONCORDIA      MOCLDY    65  64  97 SE10      29.67F
EMPORIA        CLOUDY    70  62  76 S17       29.73F
LAWRENCE       CLOUDY    71  61  70 S15       29.75F
MANHATTAN      LGT RAIN  68  67  96 NW8       29.75R FOG
OLATHE IND     MOCLDY    67  62  84 S13       29.78S
OLATHE EXE     CLOUDY    67  61  81 S14       29.78S
SALINA         LGT RAIN  69  65  86 SE15      29.68F
TOPEKA BILLARD CLOUDY    75  62  64 S17G32    29.71F
TOPEKA FORBES  CLOUDY    73  61  65 S17G28    29.72F
$$


USA.gov is the U.S. government's official web portal to all federal, state and local government web resources and services.